Regional Weather Roundup
Issued by NWS

Home | Current Version | Previous Version | Graphics & Text | Print | Product List | Glossary On
Versions: 1 2 3 4 5 6 7 8 9 10 11 12 13 14 15 16 17 18 19 20 21 22 23 24 25 26 27
000
ASUS45 KBOU 170706
RWRCO

WEATHER ROUNDUP FOR COLORADO
NATIONAL WEATHER SERVICE DENVER/BOULDER CO
100 AM MDT THU APR 17 2014

NOTE: "FAIR" INDICATES FEW OR NO CLOUDS BELOW 12000 FEET WITH NO
SIGNIFICANT WEATHER AND/OR OBSTRUCTIONS TO VISIBILITY.

COZ001>005-013-030-031-170800-
...NORTHWEST COLORADO...

CITY           SKY/WX    TMP DP  RH WIND       PRES   REMARKS
CRAIG          PTCLDY    29  20  69 CALM      30.04R
HAYDEN         PTCLDY    30  18  59 E6        30.05R WCI  24
MEEKER         CLOUDY    38  20  48 E8        30.04R
MOUNT WERNER   NOT AVBL
STEAMBOAT SPGS CLEAR     29  19  64 CALM      30.04R
WALDEN         CLOUDY    28  18  64 E3        30.05R
$$

COZ006>008-011-170800-
...WEST CENTRAL VALLEYS...

CITY           SKY/WX    TMP DP  RH WIND       PRES   REMARKS
GRAND JUNCTION CLEAR     36  24  62 SE5       29.98R
MONTROSE       CLEAR     39  26  59 SE10      30.04R
EAGLE          PTCLDY    32  21  64 CALM      30.07R
RIFLE          CLOUDY    36  24  62 E3        30.02R
DELTA          CLEAR     40  25  55 CALM      30.02S
NUCLA            N/A     36  27  69 SE9       30.07R
$$

COZ017>023-064>068-170800-
...SOUTHWEST COLORADO...

CITY           SKY/WX    TMP DP  RH WIND       PRES   REMARKS
DURANGO        CLEAR     38  22  52 NW7       30.00R
CORTEZ         CLEAR     29  21  72 E7        30.03R WCI  22
PAGOSA SPRINGS CLEAR     36  26  65 CALM      30.05R
TELLURIDE      CLEAR     30  27  86 SE6       30.09R WCI  24
WOLF CREEK PAS MOCLDY    19  19 100 NE12      30.13R FOG     WCI   7
$$

COZ009-010-012-014-032>034-037-058>063-170800-
...CENTRAL COLORADO...

CITY           SKY/WX    TMP DP  RH WIND       PRES   REMARKS
ASPEN          PTCLDY    32  19  58 SW8       30.06R WCI  25
BUENA VISTA    LGT SNOW  31  30  95 E5        30.12S WCI  26
COPPER MTN     MOCLDY    25  12  58 SW8       30.12R WCI  16
BERTHOUD PASS  MOCLDY    14   5  67 W18       30.11S WCI  -3
COTTONWOOD PAS LGT SNOW  30  27  86 SE3       30.12S
GUNNISON       CLEAR     30  18  59 CALM      30.10R
KREMMLING      MOCLDY    30  19  64 CALM      30.07R
LEADVILLE      FOG       23  22  96 SW3       30.10R VSB 1/4
MONARCH PASS   SNOW      19  18  93 MISG      30.21S VSB<1/4
SALIDA         PTCLDY    32  31  96 SE5       30.20S WCI  27
SUNLIGHT       PTCLDY    28  10  47 CALM      30.13R
WILKERSON PASS LGT SNOW  21  19  93 S3        30.14S
$$

COZ069>075-170800-
...SAN LUIS VALLEY/SANGRE DE CRISTO MOUNTAINS...

CITY           SKY/WX    TMP DP  RH WIND       PRES   REMARKS
ALAMOSA        CLOUDY    32  31  96 S3        30.09R
LA VETA PASS   SNOW      23  21  93 MISG      30.10S VSB 1/2
SAGUACHE       CLOUDY    34  28  80 CALM      30.09S
$$

COZ035-036-038>040-170800-
...NORTHERN COLORADO FRONT RANGE...

CITY           SKY/WX    TMP DP  RH WIND       PRES   REMARKS
DENVER INTL AP MOCLDY    33  29  85 S10       30.10R WCI  25
DMNS CITY PARK   N/A     39  31  72 S3        30.10S
AURORA         MOCLDY    34  30  86 S9        30.10S WCI  26
FRONT RANGE AP NOT AVBL
ERIE MUNI ARPT CLOUDY    41  32  70 SW3       30.09S
BOULDER MUN AP MOCLDY    43  30  61 CALM      30.09S
CENTENNIAL     PTCLDY    32  28  85 S6        30.10S WCI  26
BROOMFIELD     PTCLDY    37  32  81 SE5       30.09F
FORT COLLINS   PTCLDY    39  28  65 E9        30.10F
LONGMONT       MOCLDY    42  32  67 CALM      30.11S
$$

COZ041-046-047-076>085-087-088-170800-
...PIKES PEAK/PALMER DIVIDE AND SOUTHERN FOOTHILLS...

CITY           SKY/WX    TMP DP  RH WIND       PRES   REMARKS
COLO. SPRINGS  LGT SNOW  34  33  96 S5        30.15R VSB 1   WCI  30
A. F. ACADEMY  SNOW      32  32 100 CALM      30.13R VSB 1/2
ELLICOTT       NOT AVBL
FALCON         LGT SNOW  32  32 100 SW6       30.14R WCI  26
FORT CARSON    CLOUDY    34  33  99 S5        30.14R WCI  29
LIMON          CLOUDY    38  32  79 S6        30.14R
MONUMENT HILL  MOCLDY    30  28  93 S7        30.11R WCI  23
TRINIDAD       LGT RAIN  37  34  89 N7        30.14R
$$

COZ042>045-048>051-090-091-170800-
...NORTHEAST COLORADO...

CITY           SKY/WX    TMP DP  RH WIND       PRES   REMARKS
GREELEY ARPT   PTCLDY    39  28  65 E12       30.10F
AKRON          CLOUDY    34  31  88 SE8       30.13R WCI  27
BURLINGTON     CLOUDY    39  32  76 E7        30.15R
WRAY           CLOUDY    35  33  92 NE7       30.16R WCI  29
STERLING       CLOUDY    36  34  93 NE7       30.14S
HOLYOKE        CLOUDY    34  32  93 NE6       30.17F WCI  29
FORT MORGAN    CLOUDY    37  32  84 E6        30.13S
$$

COZ086-089-092>099-170800-
...SOUTHEAST COLORADO...

CITY           SKY/WX    TMP DP  RH WIND       PRES   REMARKS
PUEBLO         LGT RAIN  39  38  96 W9        30.15R
LA JUNTA       LGT RAIN  43  37  79 NE10      30.14R
LAMAR          LGT RAIN  44  37  76 NE8       30.13R
SPRINGFIELD      N/A     42  35  76 NE14      30.11R
$$



USA.gov is the U.S. government's official web portal to all federal, state and local government web resources and services.